sat.trackr.live / text

‹ back to catalog

FLOCK 4G-29

NORAD 62642 · 2025-009AK

PAYLOAD ACTIVE UNKNOWN

§ Identity

Operator
Country
US
Launch date
2025-01-14
Launch site
AFWTR
Launch vehicle
Mass (kg)
RCS (m²)

Purposes: earth_obs

External: N2YO · Heavens-Above · Gunter

§ Orbital elements

Epoch: 2026-05-25T03:54:13.552704Z

Period
94.19 min
Inclination
97.4021°
Eccentricity
0.0003289
Mean motion
15.28903836 rev/d
Perigee alt
476.8 km
Apogee alt
481.3 km
Semi-major
6,857.2 km
B*
3.8623e-4
RAAN
227.2443°
Arg perigee
48.3067°
Mean anomaly
311.8454°
Rev number
7,538

§ Raw data

FLOCK 4G-291 62642U 25009AK  26145.16265686  .00010776  00000+0  38623-3 0  99992 62642  97.4021 227.2443 0003289  48.3067 311.8454 15.28903836 75383

JSON: /api/v1/satellites/62642 · /tle

For live sub-satellite position, see the globe view (requires WebGL).

§ Visibility from observer

Set your observer location to see the next 7 days of passes ≥ 10°. The values pass through the URL so the page stays shareable.

No JS? Fill the form by hand. The geolocation button needs JavaScript.